Home > Weather > Vevay > Past weeks

Flag for U.S.A. Weather for the Past 2 Weeks in Vevay, Indiana, U.S.A.

Now
27 °F

Ice fog.


Feels Like: 27 °F
Forecast: 23 / 49 °F
Wind: No wind

Location: Cincinnati / Northern Kentucky International Airport

Current Time: Feb 6, 2016 at 9:46:47 AM

Latest Report: Feb 6, 2016 at 8:52 AM


Visibility: 3 mi

Pressure: 30.36 "Hg

Humidity: 92%

Dew point: 25 °F

Location of VevayLocation

Historic Weather in Vevay — Graph

°F

Vevay Temperature Yesterday

Maximum temperature yesterday: 42 °F (at 3:52 PM)
Minimum temperature yesterday: 19 °F (at 5:52 AM)
Average temperature yesterday: 30 °F

High & Low Weather Summary for the Past Weeks

 TemperatureHumidityPressure
High64 °F (Jan 31, 4:52 PM)96% (Feb 6, 7:47 AM)30.45 "Hg (Feb 6, 7:47 AM)
Low11 °F (Jan 24, 4:52 AM)35% (Jan 30, 1:52 PM)29.57 "Hg (Feb 3, 3:52 AM)
Average37 °F68%30.01 "Hg
* Reported Jan 22 8:52 AM — Feb 6 8:52 AM, Vevay, Weather by CustomWeather, © 2016

Note: Actual official high and low records may vary slightly from our data, if they occured in-between our weather recording intervals... More about our weather records

Advertising

Vevay Weather History for the Previous 24 Hours

 ConditionsComfort  
Time TempWeatherWind HumidityBarometerVisibility
8:52 AM
Sat, Feb 6
27 °FIce fog.No wind92%30.36 "Hg3 mi
7:47 AM22 °FIce fog.No wind96%30.36 "Hg3 mi
6:52 AM25 °FIce fog.No wind88%30.36 "Hg6 mi
5:52 AM24 °FIce fog.No wind88%30.34 "Hg6 mi
4:52 AM26 °FIce fog.No wind88%30.34 "Hg6 mi
2:52 AM27 °FIce fog.No wind89%30.34 "Hg6 mi
1:52 AM28 °FPassing clouds.3 mph85%30.33 "Hg8 mi
12:52 AM29 °FPassing clouds.5 mph82%30.34 "Hg8 mi
11:52 PM
Fri, Feb 5
29 °FPassing clouds.5 mph82%30.34 "Hg9 mi
10:52 PM32 °FPassing clouds.10 mph73%30.34 "Hg10 mi
9:52 PM32 °FPassing clouds.7 mph59%30.34 "Hg10 mi
8:52 PM33 °FPassing clouds.7 mph54%30.35 "Hg10 mi
7:52 PM33 °FPartly cloudy.6 mph56%30.36 "Hg10 mi
6:52 PM35 °FPassing clouds.5 mph52%30.37 "Hg10 mi
5:52 PM39 °FBroken clouds.7 mph43%30.37 "Hg10 mi
4:52 PM42 °FMore clouds than sun.8 mph38%30.36 "Hg10 mi
3:52 PM42 °FScattered clouds.12 mph39%30.36 "Hg10 mi
2:52 PM41 °FScattered clouds.8 mph39%30.37 "Hg10 mi
12:52 PM40 °FScattered clouds.7 mph43%30.40 "Hg10 mi
11:52 AM36 °FPassing clouds.8 mph50%30.43 "Hg10 mi
10:52 AM32 °FSunny.7 mph64%30.45 "Hg10 mi
9:52 AM29 °FSunny.7 mph72%30.45 "Hg10 mi
Weather by CustomWeather, © 2016

See weather overviewHow to use our weather pages